Jordan Valley, OR

10:09 AM MST on February 23, 2017 (GMT -0700)
Rome State

Weather History for KREO - November, 2011

Change the Weather History Date:

Wednesday, November 2, 2011

  Actual Average Record
Temperature  
Mean Temperature 31 °F 42 °F  
Max Temperature 52 °F 56 °F 67 °F (1965)
Min Temperature 9 °F 28 °F 9 °F (2011)
Degree Days  
Heating Degree Days 34 23  
Month to date heating degree days 69 46  
Since 1 July heating degree days 620 803  
Cooling Degree Days 0 0  
Month to date cooling degree days 0 0  
Year to date cooling degree days 430 507  
Moisture  
Dew Point 8 °F    
Average Humidity 49    
Maximum Humidity 84    
Minimum Humidity 13    
Precipitation  
Precipitation 0.00 in 0.04 in 0.52 in (1988)
Month to date precipitation 0.00 0.07  
Year to date precipitation 9.69 7.54  
Sea Level Pressure  
Sea Level Pressure 30.37 in    
Wind  
Wind Speed 7 mph (SSE)    
Max Wind Speed 20 mph    
Max Gust Speed 24 mph    
T = Trace of Precipitation, MM = Missing Value Source: NWS Daily Summary

Daily Weather History Graph

Daily Weather History Graph

Search for Another Location

Airport or City:

Trip Planner

Search our weather history database for the weather conditions in past years. The results will help you decide how hot, cold, wet, or windy it might be!

Date:

Astronomy

Nov. 02, 2011 Rise Set
Actual Time 7:26 AM PDT 5:43 PM PDT
Civil Twilight 6:56 AM PDT 6:12 PM PDT
Nautical Twilight 6:23 AM PDT 6:46 PM PDT
Astronomical Twilight 5:50 AM PDT 7:18 PM PDT
Moon 1:48 PM PDT (11/2) No Moon Set
Length of Visible Light 11h 15m
Length of Day
10h 17m
Waxing Crescent, 51% of the Moon is Illuminated
Nov 2
Waxing Crescent
Nov 10
Full
Nov 18
Last Quarter
Nov 24
New
Dec 2
First Quarter

Hourly Weather History & Observations

Time (PDT) Temp. Windchill Dew Point Humidity Pressure Visibility Wind Dir Wind Speed Gust Speed Precip Events Conditions
12:52 AM 15.1 °F 5.2 °F 9.0 °F 77% 30.54 in - South 6.9 mph - N/A   Unknown
1:52 AM 17.1 °F 5.8 °F 10.9 °F 77% 30.53 in - SE 9.2 mph - N/A   Unknown
2:52 AM 16.0 °F 6.3 °F 10.9 °F 81% 30.53 in - SE 6.9 mph - N/A   Unknown
3:52 AM 17.1 °F - 10.9 °F 77% 30.52 in - Calm Calm - N/A   Unknown
4:52 AM 14.0 °F 5.1 °F 9.0 °F 80% 30.52 in - West 5.8 mph - N/A   Unknown
5:52 AM 12.9 °F - 9.0 °F 84% 30.54 in - Calm Calm - N/A   Unknown
6:52 AM 14.0 °F 6.5 °F 8.1 °F 77% 30.55 in - NNE 4.6 mph - N/A   Unknown
7:52 AM 12.0 °F - 8.1 °F 84% 30.60 in - Calm Calm - N/A   Unknown
8:52 AM 21.9 °F 17.2 °F 14.0 °F 72% 30.57 in - WSW 3.5 mph - N/A   Unknown
9:52 AM 28.9 °F - 14.0 °F 54% 30.55 in - Calm Calm - N/A   Unknown
10:52 AM 37.0 °F - 15.1 °F 41% 30.51 in - Calm Calm - N/A   Unknown
11:52 AM 43.0 °F 37.7 °F 14.0 °F 31% 30.44 in - North 9.2 mph - N/A   Unknown
12:52 PM 46.0 °F 43.1 °F 15.1 °F 29% 30.40 in - Variable 5.8 mph - N/A   Unknown
1:52 PM 51.1 °F - 9.0 °F 18% 30.33 in - ESE 10.4 mph - N/A   Unknown
2:52 PM 52.0 °F - 1.9 °F 13% 30.30 in - SE 17.3 mph - N/A   Unknown
3:52 PM 51.1 °F - 5.0 °F 15% 30.26 in - SE 18.4 mph 24.2 mph N/A   Unknown
4:52 PM 48.9 °F - 6.1 °F 18% 30.24 in - SE 19.6 mph 24.2 mph N/A   Unknown
5:52 PM 44.1 °F 38.6 °F 5.0 °F 20% 30.22 in - SE 10.4 mph - N/A   Unknown
6:52 PM 42.1 °F 35.7 °F 3.0 °F 20% 30.20 in - SE 11.5 mph - N/A   Unknown
7:52 PM 37.9 °F 30.9 °F 3.9 °F 24% 30.19 in - South 10.4 mph - N/A   Unknown
8:52 PM 33.1 °F 26.1 °F 3.9 °F 29% 30.14 in - South 8.1 mph - N/A   Unknown
9:52 PM 34.0 °F 31.0 °F 6.1 °F 31% 30.09 in - Variable 3.5 mph - N/A   Unknown
10:52 PM 33.1 °F - 3.9 °F 29% 30.06 in - Calm Calm - N/A   Unknown
11:52 PM 27.0 °F - 3.9 °F 37% 30.04 in - Calm Calm - N/A   Unknown